Location: Ottawa
(45.4170°N, 75.7000°W)
Time: 09:23:21
(UTC-04:00)

ISS - Visible Passes

Search period start: 02 April 2020 00:00
Search period end: 12 April 2020 00:00
Orbit: 416 x 423 km, 51.6° (Epoch: 02 April)

Date Brightness Start Highest point End Pass type
(mag) Time Alt. Az. Time Alt. Az. Time Alt. Az.
02 Apr -3.7 20:25:25 10° WNW 20:28:47 70° NNE 20:31:14 17° ESE visible
02 Apr -1.3 22:02:47 10° W 22:04:13 17° WSW 22:04:13 17° WSW visible
03 Apr -2.4 21:15:00 10° WNW 21:18:01 31° SW 21:18:50 27° S visible
04 Apr -3.1 20:27:24 10° WNW 20:30:40 49° SW 20:33:31 13° SE visible
05 Apr -1.1 21:18:08 10° WSW 21:19:34 12° SW 21:21:01 10° SSW visible
06 Apr -1.5 20:29:48 10° W 20:32:18 20° SW 20:34:48 10° S visible
